This demonstration page uses our WeatherBlox Daily Observations layout. Learn more.

Left ArrowRight Arrow

Hourly Observations for September 30, 2022

Temp ( °F °C ) Dew Point ( °F °C ) Humidity (%) Winds ( mph kmh ) Pressure ( in mb ) Visibility ( mi km ) Precip ( " mm )
12:55 am 00:55 Clear 54 12.2 39 3.9 57 57 ESE 6 9 30.20 1023 10 16 0.00 0.00
1:55 am 01:55 Clear 53 11.6 38 3.6 58 58 ESE 6 9 30.19 1023 10 16 0.00 0.00
2:55 am 02:55 Clear 51 10.7 38 3.5 61 61 SE 5 7 30.19 1023 10 16 0.00 0.00
3:55 am 03:55 Clear 51 10.6 38 3.6 62 62 ESE 5 7 30.19 1023 10 16 0.00 0.00
4:55 am 04:55 Mostly Clear 50 9.9 38 3.4 64 64 SE 6 9 30.19 1022 10 16 0.00 0.00
5:55 am 05:55 Mostly Cloudy 50 10.2 39 3.9 65 65 SE 7 11 30.20 1023 10 16 0.00 0.00
6:55 am 06:55 Mostly Cloudy 51 10.5 40 4.2 65 65 SE 5 7 30.19 1022 10 16 0.00 0.00
7:55 am 07:55 Mostly Cloudy 53 11.4 40 4.6 63 63 SE 6 9 30.19 1022 10 16 0.00 0.00
8:55 am 08:55 Mostly Sunny 57 14.1 41 4.9 54 54 SSE 10 17 30.19 1022 10 16 0.00 0.00
9:55 am 09:55 Mostly Sunny 61 16.2 41 4.9 47 47 SSE 15 24 30.17 1022 10 16 0.00 0.00
10:55 am 10:55 Sunny 67 19.5 41 4.8 38 38 SSE 15 24 30.18 1022 10 16 0.00 0.00
11:55 am 11:55 Sunny 70 21.2 40 4.3 33 33 SE 16 26 30.16 1021 10 16 0.00 0.00
12:55 pm 12:55 Sunny 74 23.6 39 4 28 28 SSE 16 26 30.12 1020 10 16 0.00 0.00
1:55 pm 13:55 Mostly Cloudy 77 24.9 40 4.6 27 27 SE 18 30 30.10 1019 10 16 0.00 0.00
2:55 pm 14:55 Sunny 78 25.5 40 4.6 26 26 SSE 17 28 30.07 1018 10 16 0.00 0.00
3:55 pm 15:55 Partly Cloudy 78 25.6 40 4.7 26 26 SE 20 31 30.06 1018 10 16 0.00 0.00
4:55 pm 16:55 Partly Cloudy 78 25.5 41 5.1 27 27 SE 18 30 30.05 1018 10 16 0.00 0.00
5:55 pm 17:55 Partly Cloudy 76 24.3 41 5.1 29 29 SE 15 24 30.04 1017 10 16 0.00 0.00
6:55 pm 18:55 Partly Cloudy 72 22.1 41 5.1 33 33 SE 12 19 30.05 1018 10 16 0.00 0.00
7:55 pm 19:55 Partly Cloudy 67 19.7 40 4.2 36 36 ESE 10 17 30.06 1018 10 16 0.00 0.00
8:55 pm 20:55 Partly Cloudy 65 18.3 41 4.8 41 41 ESE 13 20 30.07 1018 10 16 0.00 0.00
9:55 pm 21:55 Clear 62 16.7 41 5 46 46 SE 9 15 30.08 1019 10 16 0.00 0.00
10:55 pm 22:55 Clear 59 14.8 42 5.3 53 53 ESE 7 11 30.09 1019 10 16 0.00 0.00
11:55 pm 23:55 Mostly Clear 57 13.8 41 5.2 56 56 SE 8 13 30.09 1019 10 16 0.00 0.00

Powered by AerisWeather